Regional Weather Roundup
Issued by NWS Sioux Falls, SD

Home | Current Version | Previous Version | Graphics & Text | Print | Product List | Glossary Off
Versions: 1 2 3 4 5 6 7 8 9 10 11 12 13 14 15 16 17 18 19 20 21 22 23 24 25 26 27 28 29 30 31 32 33 34 35 36 37 38 39 40 41 42 43 44 45 46 47 48 49 50

000
ASUS43 KFSD 252210
RWRFSD

WEATHER ROUNDUP FOR SE SOUTH DAKOTA/SW MINNESOTA/NW IOWA
NATIONAL WEATHER SERVICE SIOUX FALLS SD
500 PM CDT SAT MAR 25 2017

NOTE: "FAIR" INDICATES FEW OR NO CLOUDS BELOW 12,000 FEET WITH NO
SIGNIFICANT WEATHER AND OR OBSTRUCTIONS TO VISIBILITY.


SDZ038>040-050-052>070-252300-
SOUTHEAST SOUTH DAKOTA

CITY           SKY/WX    TMP DP  RH WIND       PRES   REMARKS
BROOKINGS      CLOUDY    40  36  86 NE10      30.00F
CHAMBERLAIN    SUNNY     54  37  54 E12G18    29.95F
HURON          MOSUNNY   44  36  73 SE8       29.99F
MADISON        CLOUDY    39  39 100 E12       30.00F
MITCHELL       MOSUNNY   47  36  65 NE10      30.00S
SIOUX FALLS    CLOUDY    42  38  85 E13       30.00R
WINNER         FAIR      62  32  32 SE14G21   29.91F
YANKTON        CLOUDY    43  37  81 NE7       29.99S
$$

MNZ071-072-080-081-089-090-097-098-252300-
SOUTHWEST MINNESOTA

CITY           SKY/WX    TMP DP  RH WIND       PRES   REMARKS
FAIRMONT       CLOUDY    38  36  92 NE12      30.01F FOG
JACKSON        CLOUDY    36  36 100 E13       30.00S FOG
LUVERNE        CLOUDY    37  34  87 E13       30.00R
MARSHALL       CLOUDY    41  36  82 E14       30.03F
MONTEVIDEO     CLOUDY    39  36  87 E9        30.08F
PIPESTONE      CLOUDY    39  36  87 E10G16    29.99S
REDWOOD FALLS  CLOUDY    42  35  76 NE12      30.04F
TRACY          CLOUDY    41  38  87 E13       30.03S
WINDOM         CLOUDY    39  37  93 NE13      30.00F FOG
WORTHINGTON    CLOUDY    38  36  92 NE15      29.99S FOG
$$

IAZ001>003-012>014-020>022-031-032-NEZ013-014-SDZ071-252300-
NORTHWEST IOWA

CITY           SKY/WX    TMP DP  RH WIND       PRES   REMARKS
CHEROKEE       CLOUDY    39  38  97 NE14G20   29.96F
ESTHERVILLE    CLOUDY    37  37 100 NE16      29.99R
LE MARS        CLOUDY    41  37  87 NE10G17   29.99R
ORANGE CITY    CLOUDY    39  37  93 E8        29.97S
SHELDON        CLOUDY    39  39 100 E14G21    29.96F
SIOUX CITY     CLOUDY    41  38  89 NE12      29.97F
SPENCER        CLOUDY    38  37  97 NE20      29.98S FOG
STORM LAKE     PTSUNNY   37  37 100 NE18      29.94F FOG
$$

ABBREVIATIONS USED IN REMARKS
   TC - TEMPERATURE IN CELSIUS
  WCI - WIND CHILL INDEX
   HX - HEAT INDEX
  VSB - VISIBILITY





USA.gov is the U.S. government's official web portal to all federal, state and local government web resources and services.